Terug naar catalogus

STARLINK-30538

ActiefCommunicatieVLEO
NORAD 57994·PAYLOAD·🇺🇸 United States

Gelanceerd Oct 5, 2023 vanaf Cape Canaveral Space Force Station

Loading…

Volgende Passages (komende 24 uur)

TLE

VersSource: CelesTrak SupGP

Epoch: Sep 15, 2026, 01:50 UTC

1 57994C 23153D   26258.07687500  .00007911  00000+0  28665-3 0  2589
2 57994  43.0025  77.5599 0001783 270.9702 314.1165 15.27562730    18

Volg STARLINK-30538 in realtime met AllMySat

Download on the App Store